Location: Central Coast NSW, Australia
(33.2407°S, 151.4316°E)
Time: 16:34:20
(UTC+11:00)

Envisat - Visible Passes

Search period start: 17 November 2018 00:00
Search period end: 27 November 2018 00:00
Orbit: 764 x 766 km, 98.2° (Epoch: 16 November)

Date Brightness Start Highest point End Pass type
(mag) Time Alt. Az. Time Alt. Az. Time Alt. Az.
17 Nov 3.7 19:55:16 10° SE 19:59:51 32° E 20:04:22 10° NNE visible
17 Nov 5.3 21:34:34 10° SSW 21:38:39 24° WSW 21:42:42 10° WNW visible
18 Nov 3.7 20:57:07 10° S 21:02:09 56° WSW 21:07:08 10° NNW visible
19 Nov 3.0 20:20:23 10° SSE 20:25:28 60° E 20:30:30 10° N visible
19 Nov 5.9 22:01:27 10° SW 22:03:54 14° WSW 22:06:20 10° W visible
20 Nov 4.9 21:23:04 10° S 21:27:33 31° WSW 21:31:59 10° NW visible
21 Nov 3.3 20:45:52 10° S 20:51:00 73° WSW 20:56:05 10° NNW visible
22 Nov 3.3 20:09:19 10° SSE 20:14:16 46° E 20:19:08 10° N visible
22 Nov 5.8 21:49:33 10° SSW 21:52:51 17° WSW 21:56:07 10° WNW visible
23 Nov 4.4 21:11:40 10° S 21:16:26 39° WSW 21:21:09 10° NW visible
24 Nov 3.0 20:34:39 10° SSE 20:39:50 87° ENE 20:44:56 10° NNW visible
25 Nov 5.4 21:37:53 10° SSW 21:41:46 22° WSW 21:45:38 10° WNW visible
26 Nov 3.9 21:00:20 10° S 21:05:18 51° WSW 21:10:13 10° NNW visible
